Three Rivers, MI

7:49 PM EDT on August 22, 2017 (GMT -0400)
Three Rivers Municipal-Haines

Weather History for KHAI - February, 2007

Change the Weather History Date:

Monday, February 12, 2007

  Actual Average Record
Temperature  
Mean Temperature 26 °F -  
Max Temperature 28 °F 33 °F 57 °F (1984)
Min Temperature 24 °F 15 °F -17 °F (2014)
Degree Days  
Heating Degree Days 39    
Moisture  
Dew Point 23 °F    
Average Humidity 88    
Maximum Humidity 93    
Minimum Humidity 69    
Precipitation  
Precipitation 0.00 in - - ()
Sea Level Pressure  
Sea Level Pressure 30.18 in    
Wind  
Wind Speed 2 mph (ENE)    
Max Wind Speed 13 mph    
Max Gust Speed -    
Visibility 4 miles    
Events Snow    
Averages and records for this station are not official NWS values.
T = Trace of Precipitation, MM = Missing Value Source: NWS Daily Summary

Daily Weather History Graph

Daily Weather History Graph

Search for Another Location

Airport or City:

Trip Planner

Search our weather history database for the weather conditions in past years. The results will help you decide how hot, cold, wet, or windy it might be!

Date:

Astronomy

Feb. 12, 2007 Rise Set
Actual Time 7:42 AM EST 6:11 PM EST
Civil Twilight 7:13 AM EST 6:40 PM EST
Nautical Twilight 6:40 AM EST 7:12 PM EST
Astronomical Twilight 6:08 AM EST 7:45 PM EST
Moon 4:03 AM EST (2/12) 12:31 PM EST (2/12)
Length of Visible Light 11h 26m
Length of Day
10h 28m
Waning Crescent, 28% of the Moon is Illuminated
Feb 12
Waning Crescent
Feb 17
New
Feb 24
First Quarter
Mar 3
Full
Mar 11
Last Quarter

Hourly Weather History & Observations

Time (EST) Temp. Windchill Dew Point Humidity Pressure Visibility Wind Dir Wind Speed Gust Speed Precip Events Conditions
12:16 AM 24.8 °F - 15.8 °F 69% 30.19 in 10.0 mi Calm Calm - N/A   Overcast
12:36 AM 24.8 °F - 17.6 °F 74% 30.19 in 7.0 mi Calm Calm - N/A Snow Light Snow
12:56 AM 24.8 °F - 19.4 °F 80% 30.19 in 5.0 mi Calm Calm - N/A Snow Light Snow
1:16 AM 24.8 °F - 19.4 °F 80% 30.19 in 5.0 mi Calm Calm - N/A Snow Light Snow
1:36 AM 24.8 °F - 19.4 °F 80% 30.19 in 5.0 mi Calm Calm - N/A Snow Light Snow
1:56 AM 24.8 °F - 19.4 °F 80% 30.19 in 5.0 mi Calm Calm - N/A Snow Light Snow
2:16 AM 24.8 °F 20.5 °F 19.4 °F 80% 30.19 in 5.0 mi SSW 3.5 mph - N/A Snow Light Snow
2:36 AM 24.8 °F - 19.4 °F 80% 30.19 in 4.0 mi Calm Calm - N/A Snow Light Snow
2:56 AM 24.8 °F 20.5 °F 21.2 °F 86% 30.19 in 3.0 mi SSW 3.5 mph - N/A Snow Light Snow
3:16 AM 24.8 °F - 21.2 °F 86% 30.18 in 3.0 mi Calm Calm - N/A Snow Light Snow
3:36 AM 24.8 °F 20.5 °F 21.2 °F 86% 30.18 in 3.0 mi South 3.5 mph - N/A Snow Light Snow
3:56 AM 24.8 °F - 21.2 °F 86% 30.18 in 2.5 mi Calm Calm - N/A Snow Light Snow
4:16 AM 24.8 °F - 21.2 °F 86% 30.18 in 3.0 mi Calm Calm - N/A Snow Light Snow
4:36 AM 24.8 °F - 21.2 °F 86% 30.18 in 3.0 mi Calm Calm - N/A Snow Light Snow
4:56 AM 24.8 °F - 21.2 °F 86% 30.17 in 5.0 mi Calm Calm - N/A Snow Light Snow
5:16 AM 24.8 °F - 21.2 °F 86% 30.17 in 4.0 mi Calm Calm - N/A Snow Light Snow
5:36 AM 24.8 °F - 21.2 °F 86% 30.17 in 3.0 mi Calm Calm - N/A Snow Light Snow
5:56 AM 24.8 °F - 21.2 °F 86% 30.17 in 4.0 mi Calm Calm - N/A Snow Light Snow
6:16 AM 24.8 °F - 21.2 °F 86% 30.17 in 4.0 mi Calm Calm - N/A Snow Light Snow
6:36 AM 24.8 °F - 23.0 °F 93% 30.17 in 5.0 mi Calm Calm - N/A Snow Light Snow
6:56 AM 24.8 °F 20.5 °F 23.0 °F 93% 30.16 in 3.0 mi South 3.5 mph - N/A Snow Light Snow
7:16 AM 24.8 °F 20.5 °F 23.0 °F 93% 30.17 in 2.0 mi South 3.5 mph - N/A Snow Light Snow
7:37 AM 24.8 °F 20.5 °F 23.0 °F 93% 30.17 in 1.0 mi South 3.5 mph - N/A Snow Snow
7:56 AM 24.8 °F 20.5 °F 23.0 °F 93% 30.18 in 0.8 mi South 3.5 mph - N/A Snow Light Snow
8:16 AM 24.8 °F 20.5 °F 23.0 °F 93% 30.19 in 3.0 mi South 3.5 mph - N/A Snow Light Snow
8:37 AM 24.8 °F 20.5 °F 23.0 °F 93% 30.18 in 2.0 mi SSE 3.5 mph - N/A Snow Light Snow
8:56 AM 24.8 °F - 23.0 °F 93% 30.19 in 2.0 mi Calm Calm - N/A Snow Light Snow
9:16 AM 24.8 °F - 23.0 °F 93% 30.19 in 3.0 mi Calm Calm - N/A   Overcast
9:36 AM 26.6 °F - 24.8 °F 93% 30.19 in 2.5 mi Calm Calm - N/A Snow Light Snow
9:57 AM 26.6 °F - 24.8 °F 93% 30.19 in 0.8 mi Calm Calm - N/A Snow Light Snow
10:16 AM 26.6 °F 22.6 °F 24.8 °F 93% 30.19 in 0.5 mi NE 3.5 mph - N/A Snow Light Snow
10:36 AM 26.6 °F 22.6 °F 24.8 °F 93% 30.19 in 1.0 mi NE 3.5 mph - N/A Snow Light Snow
10:59 AM 26.6 °F - 24.8 °F 93% 30.21 in 1.8 mi Calm Calm - N/A Snow Light Snow
11:16 AM 26.6 °F 22.6 °F 24.8 °F 93% 30.20 in 0.8 mi NE 3.5 mph - N/A Snow Light Snow
11:36 AM 26.6 °F 21.2 °F 24.8 °F 93% 30.20 in 1.0 mi NE 4.6 mph - N/A Snow Light Snow
11:56 AM 28.4 °F 23.3 °F 24.8 °F 86% 30.20 in 1.5 mi NNE 4.6 mph - N/A Snow Light Snow
12:16 PM 28.4 °F 23.3 °F 24.8 °F 86% 30.20 in 4.0 mi NE 4.6 mph - N/A Snow Light Snow
12:36 PM 28.4 °F 23.3 °F 24.8 °F 86% 30.20 in 4.0 mi NE 4.6 mph - N/A Snow Light Snow
12:56 PM 28.4 °F 22.2 °F 24.8 °F 86% 30.20 in 4.0 mi NNE 5.8 mph - N/A Snow Light Snow
1:16 PM 28.4 °F 23.3 °F 26.6 °F 93% 30.18 in 1.8 mi NE 4.6 mph - N/A Snow Light Snow
1:38 PM 28.4 °F 22.2 °F 26.6 °F 93% 30.17 in 2.5 mi NE 5.8 mph - N/A Snow Light Snow
1:56 PM 28.4 °F 21.2 °F 24.8 °F 86% 30.17 in 2.5 mi ENE 6.9 mph - N/A Snow Light Snow
2:16 PM 28.4 °F 21.2 °F 24.8 °F 86% 30.17 in 4.0 mi NE 6.9 mph - N/A Snow Light Snow
2:36 PM 28.4 °F 20.4 °F 24.8 °F 86% 30.17 in 4.0 mi NE 8.1 mph - N/A   Overcast
2:57 PM 28.4 °F 21.2 °F 26.6 °F 93% 30.16 in 4.0 mi NE 6.9 mph - N/A   Overcast
3:17 PM 28.4 °F 21.2 °F 26.6 °F 93% 30.17 in 4.0 mi NE 6.9 mph - N/A   Overcast
3:36 PM 28.4 °F 22.2 °F 26.6 °F 93% 30.17 in 4.0 mi NE 5.8 mph - N/A   Overcast
3:56 PM 28.4 °F 20.4 °F 26.6 °F 93% 30.17 in 5.0 mi NE 8.1 mph - N/A   Overcast
4:17 PM 28.4 °F 19.7 °F 24.8 °F 86% 30.17 in 5.0 mi NE 9.2 mph - N/A   Overcast
4:36 PM 28.4 °F 22.2 °F 26.6 °F 93% 30.17 in 5.0 mi NNE 5.8 mph - N/A   Overcast
4:56 PM 28.4 °F 19.7 °F 24.8 °F 86% 30.17 in 5.0 mi NE 9.2 mph - N/A   Overcast
5:16 PM 28.4 °F 21.2 °F 24.8 °F 86% 30.18 in 7.0 mi NE 6.9 mph - N/A   Overcast
5:36 PM 28.4 °F 19.7 °F 24.8 °F 86% 30.18 in 5.0 mi NE 9.2 mph - N/A   Overcast
5:56 PM 28.4 °F 19.7 °F 24.8 °F 86% 30.19 in 5.0 mi NE 9.2 mph - N/A   Overcast
6:16 PM 28.4 °F 20.4 °F 24.8 °F 86% 30.20 in 5.0 mi NE 8.1 mph - N/A   Haze
6:36 PM 28.4 °F 19.7 °F 24.8 °F 86% 30.20 in 7.0 mi NE 9.2 mph - N/A   Overcast
6:56 PM 28.4 °F 19.1 °F 23.0 °F 80% 30.21 in 7.0 mi NE 10.4 mph - N/A   Overcast
7:16 PM 26.6 °F 15.7 °F 23.0 °F 86% 30.21 in 7.0 mi ENE 12.7 mph - N/A   Overcast
7:36 PM 26.6 °F 16.2 °F 21.2 °F 80% 30.21 in 7.0 mi NE 11.5 mph - N/A   Overcast
7:58 PM 26.6 °F 16.2 °F 21.2 °F 80% 30.22 in 7.0 mi NE 11.5 mph 18.4 mph N/A   Overcast
8:16 PM 26.6 °F 15.7 °F 21.2 °F 80% 30.22 in 10.0 mi NE 12.7 mph - N/A   Overcast
8:36 PM 26.6 °F 17.5 °F 21.2 °F 80% 30.23 in 10.0 mi NE 9.2 mph - N/A   Overcast
8:56 PM 26.6 °F 17.5 °F 21.2 °F 80% 30.23 in 10.0 mi NE 9.2 mph - N/A   Overcast
9:16 PM 24.8 °F 15.3 °F 19.4 °F 80% 30.23 in 10.0 mi NE 9.2 mph - N/A   Overcast
9:36 PM 24.8 °F 14.6 °F 19.4 °F 80% 30.23 in 10.0 mi NE 10.4 mph - N/A   Overcast
9:56 PM 24.8 °F 14.0 °F 19.4 °F 80% 30.23 in 10.0 mi NE 11.5 mph - N/A   Overcast
10:16 PM 24.8 °F 13.4 °F 19.4 °F 80% 30.24 in 10.0 mi NE 12.7 mph - N/A   Overcast
10:36 PM 24.8 °F 13.4 °F 19.4 °F 80% 30.24 in 10.0 mi NE 12.7 mph - N/A   Overcast
10:57 PM 24.8 °F 14.0 °F 19.4 °F 80% 30.24 in 10.0 mi NE 11.5 mph - N/A   Overcast
11:16 PM 24.8 °F 14.0 °F 17.6 °F 74% 30.25 in 10.0 mi NE 11.5 mph - N/A   Overcast
11:36 PM 24.8 °F 14.0 °F 17.6 °F 74% 30.24 in 10.0 mi NE 11.5 mph - N/A   Overcast
11:56 PM 23.0 °F 11.1 °F 15.8 °F 74% 30.23 in 10.0 mi NE 12.7 mph 17.3 mph N/A   Overcast